UAL704 KDEN-KABQ

Flight info

Callsign UAL704
Flight time N/A
Altitude 36000
Route SMMUR2 DAAYE DATME SNDIA4
Aircraft B739/M-SDE2E3FGHIRWXY/LB1

Departure

Time 2026-05-04 17:00
Airport Denver International Airport (KDEN)

Arrival

Time N/A
Airport Albuquerque International Sunport (KABQ)
Time Latitude Longitude Altitude Speed Heading
2026-05-04 16:35 39.86359 -104.67637 5382 ft 0 kts 180°
2026-05-04 16:50 39.86376 -104.67637 5383 ft 4 kts 180°
2026-05-04 16:50 39.86416 -104.67626 5382 ft 0 kts 232°
2026-05-04 16:51 39.86423 -104.67594 5379 ft 0 kts 274°
2026-05-04 16:56 39.86424 -104.67625 5385 ft 1 kts 264°
2026-05-04 16:56 39.86416 -104.67676 5385 ft 1 kts 263°
2026-05-04 16:57 39.86416 -104.67682 5385 ft 1 kts 268°
2026-05-04 16:57 39.86417 -104.67734 5385 ft 7 kts 271°
2026-05-04 16:58 39.86420 -104.68107 5385 ft 19 kts 270°
2026-05-04 16:58 39.86422 -104.68310 5366 ft 28 kts 271°
2026-05-04 16:59 39.86434 -104.68685 5364 ft 17 kts 302°
2026-05-04 17:00 39.87725 -104.68711 5365 ft 139 kts
2026-05-04 17:00 39.91506 -104.68743 6650 ft 191 kts 354°
2026-05-04 17:01 39.94233 -104.68898 7591 ft 211 kts 353°
2026-05-04 17:01 39.97371 -104.69472 7937 ft 245 kts 327°
2026-05-04 17:02 39.98695 -104.73479 8810 ft 259 kts 264°
2026-05-04 17:02 39.96769 -104.77347 9869 ft 274 kts 210°
2026-05-04 17:03 39.94982 -104.78264 10408 ft 278 kts 199°
2026-05-04 17:03 39.93091 -104.78926 10920 ft 282 kts 196°
2026-05-04 17:03 39.89273 -104.80143 11954 ft 287 kts 196°
2026-05-04 17:04 39.85367 -104.81427 13003 ft 291 kts 196°
2026-05-04 17:04 39.81411 -104.82772 13999 ft 294 kts 197°
2026-05-04 17:05 39.77467 -104.84135 14989 ft 295 kts 197°
2026-05-04 17:05 39.73496 -104.85516 15988 ft 296 kts 197°
2026-05-04 17:06 39.69522 -104.86902 17000 ft 295 kts 198°
2026-05-04 17:06 39.67535 -104.87595 17485 ft 296 kts 197°
2026-05-04 17:07 39.63536 -104.88990 18428 ft 297 kts 197°
2026-05-04 17:07 39.62208 -104.89453 18662 ft 299 kts 197°
2026-05-04 17:07 39.59525 -104.90388 19161 ft 301 kts 197°
2026-05-04 17:07 39.57494 -104.91087 19539 ft 303 kts 196°
2026-05-04 17:08 39.55439 -104.91725 19905 ft 305 kts 196°
2026-05-04 17:08 39.51286 -104.93033 20649 ft 308 kts 197°
2026-05-04 17:08 39.49201 -104.93728 21021 ft 309 kts 197°
2026-05-04 17:09 39.47142 -104.94432 21399 ft 310 kts 197°
2026-05-04 17:09 39.45002 -104.95177 21478 ft 327 kts 198°
2026-05-04 17:09 39.42762 -104.95967 21610 ft 341 kts 198°
2026-05-04 17:10 39.37985 -104.97660 21815 ft 370 kts 198°
2026-05-04 17:10 39.30105 -105.00454 22068 ft 408 kts 197°
2026-05-04 17:11 39.27378 -105.01419 22385 ft 414 kts 198°
2026-05-04 17:11 39.24556 -105.02416 22819 ft 416 kts 198°
2026-05-04 17:11 39.18970 -105.04391 23665 ft 420 kts 198°
2026-05-04 17:12 39.16136 -105.05393 24038 ft 422 kts 199°
2026-05-04 17:12 39.10781 -105.08295 24820 ft 420 kts 211°
2026-05-04 17:13 39.02925 -105.13492 25951 ft 424 kts 212°
2026-05-04 17:14 38.95001 -105.18651 26998 ft 429 kts 213°
2026-05-04 17:14 38.92325 -105.20380 27369 ft 431 kts 213°
2026-05-04 17:14 38.86939 -105.23853 28070 ft 434 kts 214°
2026-05-04 17:15 38.84261 -105.25577 28402 ft 436 kts 214°
2026-05-04 17:15 38.78825 -105.29071 29118 ft 436 kts 214°
2026-05-04 17:16 38.73448 -105.32516 30178 ft 428 kts 215°
2026-05-04 17:16 38.65528 -105.37589 31358 ft 421 kts 216°
2026-05-04 17:17 38.62914 -105.39261 31781 ft 418 kts 217°
2026-05-04 17:17 38.55193 -105.44195 32911 ft 411 kts 218°
2026-05-04 17:18 38.52641 -105.45822 33302 ft 407 kts 218°
2026-05-04 17:18 38.47663 -105.48991 34176 ft 398 kts 219°
2026-05-04 17:19 38.42683 -105.52164 34496 ft 400 kts 219°
2026-05-04 17:19 38.37766 -105.55215 35386 ft 387 kts 219°
2026-05-04 17:20 38.32924 -105.58216 35760 ft 388 kts 220°
2026-05-04 17:20 38.25622 -105.62754 35858 ft 390 kts 220°
2026-05-04 17:21 38.15808 -105.68826 35842 ft 388 kts 220°
2026-05-04 17:22 38.11024 -105.71774 35920 ft 383 kts 220°
2026-05-04 17:23 38.01208 -105.77675 35903 ft 402 kts 213°
2026-05-04 17:24 37.92893 -105.80018 35913 ft 406 kts 206°
2026-05-04 17:25 37.81897 -105.82769 35915 ft 402 kts 207°